パンスターズ彗星

P/2021 L4 ( PanSTARRS )

English version
Home page
Updated on September 18, 2021

---------------------------------------------------------------------

・ プロフィール

発見日 2021年6月9日
発見光度 20.9等
発見者 Pan-STARRS 1 telescope (Haleakala)

・ 軌道要素

Epoch 2019 Aug. 25.0 TT = JDT 2458720.5
T 2019 Sept. 5.52850 TT                                 Rudenko
q   2.7900954            (2000.0)            P               Q
n   0.17485626     Peri.  234.90238     -0.43981795     -0.85949265
a   3.1672469      Node   243.23505     +0.88928526     -0.37629039
e   0.1190787      Incl.   16.95970     +0.12542686     -0.34594498
P   5.64
From 34 observations 2021 June 2-Sept. 2, mean residual 0".3.

・ 光度変化

        m1 = 13.5 + 5 logΔ + 10.0 log r

---------------------------------------------------------------------

軌道要素はM.P.E.C. 2021-R75に掲載されたものです。
光度グラフはComet for Windowsで作成したものです。

---------------------------------------------------------------------

Copyright(C) Seiichi Yoshida (comet@aerith.net). All rights reserved.